QPF
0.10 0.07 0.06 0.05 0.05 0.06 0.06 0.06 0.04 0.05 0.04 0.03 0.05 0.07 0.07 0.07 0.06 0.04 0.04 0.03 0.04 0.05 0.04 0.04 0.03 0.03 0.03 0.03 0.02 0.02 0.03 0.02 0.02 0.03 0.04 0.03 0.02 0.01 0.02 0.05 0.08 0.12 0.06
0.06 0.05 0.03 0.04 0.04 0.04 0.05 0.06 0.06 0.06 0.04 0.03 0.04 0.07 0.08 0.05 0.04 0.03 0.03 0.03 0.05 0.05 0.04 0.04 0.03 0.03 0.03 0.02 0.02 0.02 0.03 0.02 0.02 0.02 0.04 0.04 0.03 0.02 0.02 0.06 0.09 0.10 0.04
0.05 0.03 0.02 0.04 0.03 0.05 0.06 0.06 0.08 0.07 0.05 0.04 0.03 0.05 0.07 0.05 0.04 0.04 0.03 0.04 0.05 0.04 0.03 0.03 0.03 0.02 0.03 0.02 0.02 0.02 0.02 0.03 0.02 0.04 0.09 0.10 0.05 0.02 0.02 0.04 0.05 0.03 0.04
0.04 0.04 0.03 0.06 0.06 0.07 0.07 0.06 0.07 0.07 0.08 0.09 0.06 0.06 0.05 0.04 0.03 0.03 0.05 0.05 0.06 0.04 0.02 0.02 0.03 0.02 0.02 0.02 0.02 0.02 0.01 0.03 0.03 0.06 0.08 0.08 0.07 0.03 0.03 0.03 0.03 0.03 0.03
0.03 0.02 0.03 0.07 0.10 0.08 0.08 0.08 0.07 0.08 0.10 0.10 0.09 0.08 0.05 0.04 0.05 0.05 0.05 0.06 0.05 0.04 0.03 0.03 0.03 0.02 0.02 0.02 0.02 0.01 0.01 0.03 0.04 0.05 0.05 0.08 0.07 0.05 0.03 0.02 0.02 0.03 0.03
0.03 0.02 0.03 0.05 0.05 0.06 0.06 0.07 0.08 0.09 0.11 0.11 0.10 0.08 0.07 0.05 0.07 0.08 0.06 0.05 0.04 0.04 0.04 0.02 0.03 0.02 0.02 0.02 0.03 0.02 0.02 0.03 0.05 0.07 0.09 0.08 0.07 0.05 0.03 0.02 0.03 0.04 0.04
0.03 0.02 0.02 0.05 0.05 0.04 0.04 0.05 0.10 0.10 0.09 0.12 0.13 0.09 0.07 0.07 0.10 0.13 0.09 0.06 0.05 0.04 0.04 0.03 0.02 0.02 0.02 0.02 0.02 0.01 0.02 0.04 0.08 0.10 0.11 0.09 0.06 0.04 0.03 0.02 0.03 0.05 0.04
0.01 0.01 0.02 0.02 0.05 0.05 0.07 0.09 0.09 0.08 0.07 0.10 0.11 0.08 0.06 0.06 0.09 0.13 0.11 0.07 0.05 0.04 0.04 0.03 0.02 0.02 0.02 0.02 0.01 0.01 0.01 0.02 0.07 0.09 0.08 0.06 0.06 0.05 0.04 0.03 0.05 0.06 0.05
0.00 0.02 0.03 0.03 0.05 0.06 0.06 0.06 0.07 0.08 0.08 0.07 0.05 0.04 0.05 0.05 0.09 0.10 0.09 0.07 0.05 0.05 0.04 0.02 0.01 0.01 0.02 0.02 0.02 0.02 0.01 0.02 0.05 0.07 0.05 0.05 0.06 0.06 0.06 0.05 0.06 0.04 0.03
0.02 0.02 0.02 0.03 0.06 0.07 0.06 0.07 0.09 0.09 0.08 0.07 0.05 0.03 0.04 0.08 0.13 0.09 0.07 0.06 0.04 0.03 0.02 0.01 0.01 0.02 0.02 0.02 0.02 0.02 0.02 0.03 0.04 0.04 0.05 0.06 0.07 0.07 0.06 0.05 0.05 0.04 0.04
0.04 0.03 0.02 0.03 0.04 0.07 0.07 0.06 0.08 0.06 0.05 0.05 0.05 0.03 0.04 0.09 0.08 0.06 0.04 0.03 0.02 0.02 0.01 0.02 0.02 0.02 0.02 0.02 0.01 0.01 0.03 0.04 0.05 0.05 0.06 0.08 0.07 0.07 0.06 0.07 0.04 0.03 0.05
0.04 0.03 0.02 0.04 0.05 0.05 0.05 0.05 0.07 0.06 0.05 0.04 0.03 0.03 0.04 0.05 0.04 0.03 0.03 0.03 0.03 0.02 0.02 0.03 0.03 0.03 0.03 0.03 0.01 0.02 0.04 0.05 0.07 0.07 0.07 0.07 0.07 0.08 0.08 0.08 0.06 0.06 0.07
0.02 0.02 0.01 0.03 0.04 0.04 0.04 0.04 0.05 0.05 0.05 0.04 0.03 0.03 0.04 0.04 0.04 0.04 0.04 0.05 0.05 0.04 0.03 0.03 0.03 0.03 0.02 0.02 0.02 0.03 0.03 0.04 0.05 0.05 0.06 0.08 0.09 0.10 0.09 0.07 0.07 0.07 0.06
0.01 0.01 0.01 0.02 0.03 0.05 0.05 0.05 0.04 0.03 0.04 0.04 0.04 0.03 0.02 0.03 0.03 0.04 0.04 0.04 0.06 0.05 0.05 0.04 0.03 0.02 0.03 0.02 0.03 0.03 0.03 0.04 0.05 0.03 0.04 0.08 0.11 0.10 0.09 0.09 0.10 0.09 0.07
0.02 0.02 0.01 0.02 0.03 0.05 0.05 0.04 0.03 0.03 0.03 0.03 0.02 0.02 0.02 0.02 0.02 0.04 0.03 0.04 0.05 0.05 0.05 0.04 0.03 0.03 0.03 0.03 0.02 0.03 0.02 0.03 0.04 0.03 0.03 0.06 0.10 0.11 0.10 0.09 0.09 0.08 0.05
0.02 0.01 0.01 0.02 0.03 0.05 0.05 0.03 0.02 0.02 0.02 0.03 0.02 0.01 0.01 0.01 0.02 0.02 0.02 0.03 0.03 0.04 0.04 0.04 0.03 0.03 0.02 0.02 0.02 0.02 0.01 0.01 0.03 0.03 0.04 0.05 0.06 0.06 0.06 0.07 0.07 0.06 0.05
0.03 0.03 0.02 0.02 0.04 0.04 0.03 0.02 0.01 0.01 0.02 0.02 0.02 0.01 0.01 0.01 0.02 0.02 0.02 0.02 0.02 0.02 0.02 0.03 0.03 0.04 0.03 0.03 0.03 0.02 0.02 0.02 0.02 0.03 0.04 0.04 0.03 0.02 0.03 0.04 0.05 0.06 0.05
0.03 0.03 0.02 0.02 0.04 0.03 0.02 0.02 0.02 0.02 0.03 0.02 0.02 0.01 0.02 0.02 0.03 0.03 0.02 0.02 0.02 0.03 0.03 0.04 0.05 0.05 0.04 0.04 0.03 0.02 0.02 0.02 0.02 0.03 0.03 0.02 0.02 0.02 0.02 0.02 0.04 0.04 0.05
0.03 0.04 0.05 0.03 0.03 0.03 0.03 0.03 0.03 0.03 0.03 0.02 0.02 0.02 0.03 0.04 0.03 0.03 0.03 0.03 0.03 0.03 0.06 0.06 0.05 0.03 0.04 0.04 0.04 0.03 0.03 0.02 0.03 0.03 0.03 0.02 0.02 0.03 0.03 0.02 0.01 0.02 0.04
0.02 0.04 0.05 0.07 0.06 0.05 0.03 0.03 0.03 0.03 0.03 0.03 0.03 0.04 0.04 0.03 0.02 0.02 0.03 0.03 0.03 0.04 0.05 0.05 0.04 0.03 0.03 0.04 0.03 0.02 0.02 0.02 0.03 0.03 0.02 0.01 0.02 0.02 0.02 0.02 0.02 0.01 0.01
0.01 0.02 0.02 0.04 0.06 0.06 0.05 0.04 0.04 0.04 0.04 0.04 0.04 0.05 0.04 0.03 0.03 0.03 0.04 0.04 0.03 0.04 0.05 0.04 0.05 0.04 0.03 0.03 0.03 0.03 0.01 0.02 0.02 0.02 0.01 0.01 0.02 0.02 0.02 0.02 0.02 0.02 0.01
0.01 0.01 0.02 0.04 0.04 0.04 0.05 0.05 0.05 0.05 0.05 0.04 0.04 0.03 0.03 0.04 0.04 0.03 0.04 0.03 0.03 0.05 0.06 0.04 0.05 0.04 0.03 0.03 0.02 0.02 0.02 0.02 0.02 0.01 0.01 0.01 0.01 0.02 0.02 0.01 0.01 0.01 0.02
0.02 0.02 0.01 0.02 0.03 0.05 0.04 0.04 0.06 0.07 0.05 0.05 0.05 0.04 0.04 0.04 0.04 0.03 0.03 0.03 0.03 0.03 0.04 0.04 0.05 0.05 0.04 0.04 0.03 0.03 0.03 0.03 0.02 0.02 0.02 0.01 0.01 0.01 0.02 0.01 0.01 0.01 0.01
0.01 0.01 0.00 0.01 0.02 0.05 0.06 0.06 0.06 0.06 0.06 0.04 0.05 0.05 0.04 0.04 0.04 0.04 0.03 0.03 0.03 0.04 0.04 0.04 0.05 0.07 0.07 0.06 0.05 0.04 0.02 0.02 0.04 0.03 0.02 0.02 0.01 0.01 0.01 0.01 0.01 0.01 0.02
0.01 0.00 0.00 0.00 0.01 0.04 0.08 0.08 0.06 0.05 0.05 0.04 0.05 0.05 0.04 0.04 0.06 0.06 0.05 0.04 0.04 0.04 0.04 0.04 0.05 0.08 0.09 0.07 0.06 0.05 0.04 0.04 0.03 0.03 0.02 0.02 0.02 0.02 0.02 0.02 0.02 0.01 0.01
0.01 0.01 0.00 0.00 0.01 0.04 0.07 0.09 0.08 0.04 0.05 0.04 0.03 0.04 0.04 0.03 0.03 0.04 0.05 0.06 0.06 0.06 0.06 0.06 0.05 0.07 0.08 0.06 0.05 0.05 0.06 0.05 0.04 0.04 0.03 0.02 0.03 0.02 0.02 0.04 0.04 0.02 0.01
MSLP
1012.68 1012.12 1011.65 1011.38 1011.32 1011.45 1011.69 1011.96 1012.17 1012.25 1012.20 1012.03 1011.80 1011.57 1011.40 1011.32 1011.33 1011.42 1011.55 1011.69 1011.82 1011.93 1012.04 1012.15 1012.30 1012.48 1012.68 1012.89 1013.09 1013.25 1013.36 1013.41 1013.43 1013.43 1013.43 1013.45 1013.49 1013.54 1013.60 1013.64 1013.67 1013.69 1013.69
1012.93 1012.33 1011.85 1011.58 1011.56 1011.74 1012.04 1012.35 1012.58 1012.68 1012.62 1012.44 1012.20 1011.97 1011.80 1011.73 1011.75 1011.85 1011.98 1012.12 1012.23 1012.33 1012.42 1012.52 1012.65 1012.82 1013.01 1013.21 1013.40 1013.55 1013.65 1013.70 1013.72 1013.73 1013.74 1013.77 1013.82 1013.88 1013.94 1013.98 1014.01 1014.01 1014.01
1013.07 1012.45 1011.98 1011.74 1011.76 1011.99 1012.34 1012.70 1012.97 1013.09 1013.05 1012.87 1012.64 1012.41 1012.24 1012.17 1012.19 1012.28 1012.40 1012.52 1012.62 1012.70 1012.78 1012.86 1012.98 1013.13 1013.31 1013.50 1013.67 1013.81 1013.91 1013.96 1013.99 1014.01 1014.04 1014.09 1014.16 1014.23 1014.30 1014.35 1014.37 1014.38 1014.37
1013.09 1012.49 1012.04 1011.85 1011.93 1012.22 1012.62 1013.02 1013.33 1013.48 1013.45 1013.30 1013.08 1012.86 1012.70 1012.62 1012.64 1012.71 1012.81 1012.91 1012.99 1013.05 1013.11 1013.18 1013.29 1013.43 1013.60 1013.77 1013.93 1014.06 1014.15 1014.21 1014.25 1014.29 1014.35 1014.42 1014.51 1014.60 1014.68 1014.73 1014.76 1014.77 1014.77
1013.04 1012.47 1012.08 1011.96 1012.09 1012.44 1012.89 1013.32 1013.65 1013.82 1013.82 1013.69 1013.49 1013.29 1013.14 1013.06 1013.07 1013.13 1013.21 1013.29 1013.35 1013.39 1013.44 1013.50 1013.60 1013.73 1013.89 1014.05 1014.20 1014.32 1014.41 1014.47 1014.53 1014.59 1014.67 1014.77 1014.87 1014.97 1015.06 1015.11 1015.14 1015.16 1015.18
1012.97 1012.47 1012.15 1012.10 1012.30 1012.69 1013.16 1013.61 1013.94 1014.12 1014.14 1014.03 1013.85 1013.68 1013.55 1013.49 1013.49 1013.54 1013.60 1013.65 1013.69 1013.73 1013.77 1013.83 1013.93 1014.06 1014.21 1014.36 1014.50 1014.61 1014.70 1014.77 1014.84 1014.92 1015.02 1015.13 1015.25 1015.36 1015.44 1015.49 1015.53 1015.55 1015.57
1012.96 1012.54 1012.31 1012.33 1012.58 1012.98 1013.46 1013.89 1014.21 1014.38 1014.40 1014.31 1014.17 1014.03 1013.93 1013.89 1013.90 1013.93 1013.98 1014.02 1014.05 1014.07 1014.11 1014.18 1014.28 1014.41 1014.56 1014.70 1014.84 1014.94 1015.03 1015.11 1015.20 1015.29 1015.41 1015.54 1015.66 1015.76 1015.83 1015.87 1015.89 1015.91 1015.94
1013.06 1012.73 1012.59 1012.67 1012.95 1013.35 1013.79 1014.19 1014.47 1014.62 1014.64 1014.56 1014.46 1014.36 1014.29 1014.28 1014.30 1014.33 1014.37 1014.39 1014.41 1014.43 1014.47 1014.54 1014.65 1014.78 1014.94 1015.09 1015.22 1015.33 1015.42 1015.51 1015.61 1015.72 1015.85 1015.98 1016.10 1016.19 1016.24 1016.26 1016.26 1016.27 1016.30
1013.30 1013.06 1012.99 1013.12 1013.41 1013.78 1014.17 1014.50 1014.73 1014.84 1014.85 1014.80 1014.73 1014.67 1014.65 1014.67 1014.70 1014.73 1014.76 1014.76 1014.77 1014.78 1014.82 1014.90 1015.02 1015.17 1015.33 1015.49 1015.63 1015.74 1015.85 1015.95 1016.06 1016.19 1016.33 1016.46 1016.57 1016.65 1016.69 1016.68 1016.65 1016.64 1016.65
1013.65 1013.49 1013.49 1013.65 1013.92 1014.25 1014.57 1014.82 1014.98 1015.06 1015.06 1015.03 1015.01 1015.00 1015.03 1015.07 1015.11 1015.14 1015.14 1015.13 1015.11 1015.11 1015.15 1015.24 1015.38 1015.54 1015.72 1015.89 1016.05 1016.18 1016.30 1016.42 1016.55 1016.69 1016.84 1016.98 1017.09 1017.16 1017.17 1017.14 1017.09 1017.05 1017.05
1014.07 1013.99 1014.03 1014.20 1014.45 1014.71 1014.95 1015.13 1015.23 1015.28 1015.28 1015.28 1015.30 1015.34 1015.41 1015.47 1015.52 1015.53 1015.51 1015.47 1015.44 1015.43 1015.47 1015.57 1015.72 1015.91 1016.11 1016.30 1016.48 1016.63 1016.77 1016.91 1017.05 1017.22 1017.38 1017.53 1017.64 1017.70 1017.70 1017.66 1017.58 1017.52 1017.49
1014.50 1014.48 1014.56 1014.72 1014.93 1015.13 1015.29 1015.41 1015.47 1015.49 1015.51 1015.55 1015.61 1015.69 1015.79 1015.86 1015.91 1015.90 1015.86 1015.79 1015.73 1015.72 1015.77 1015.88 1016.06 1016.27 1016.50 1016.72 1016.92 1017.10 1017.26 1017.42 1017.58 1017.76 1017.94 1018.10 1018.22 1018.28 1018.28 1018.23 1018.14 1018.06 1018.01
1014.89 1014.91 1015.01 1015.16 1015.33 1015.47 1015.58 1015.64 1015.67 1015.70 1015.74 1015.81 1015.92 1016.04 1016.15 1016.23 1016.25 1016.22 1016.15 1016.07 1016.00 1015.99 1016.05 1016.20 1016.41 1016.66 1016.93 1017.18 1017.41 1017.61 1017.79 1017.96 1018.14 1018.33 1018.51 1018.68 1018.81 1018.88 1018.88 1018.83 1018.75 1018.66 1018.60
1015.21 1015.26 1015.37 1015.49 1015.62 1015.72 1015.78 1015.82 1015.85 1015.89 1015.97 1016.07 1016.21 1016.35 1016.46 1016.53 1016.54 1016.48 1016.39 1016.30 1016.25 1016.26 1016.36 1016.55 1016.81 1017.11 1017.42 1017.71 1017.97 1018.18 1018.37 1018.55 1018.73 1018.92 1019.10 1019.27 1019.40 1019.48 1019.49 1019.45 1019.38 1019.30 1019.23
1015.45 1015.51 1015.61 1015.71 1015.81 1015.87 1015.92 1015.96 1016.00 1016.07 1016.18 1016.31 1016.46 1016.60 1016.71 1016.75 1016.73 1016.67 1016.57 1016.49 1016.47 1016.53 1016.70 1016.95 1017.28 1017.64 1018.00 1018.33 1018.61 1018.85 1019.04 1019.21 1019.38 1019.55 1019.72 1019.88 1020.00 1020.08 1020.10 1020.08 1020.02 1019.95 1019.89
1015.61 1015.68 1015.75 1015.83 1015.90 1015.95 1016.00 1016.06 1016.13 1016.24 1016.37 1016.53 1016.68 1016.80 1016.87 1016.89 1016.85 1016.77 1016.69 1016.65 1016.69 1016.83 1017.08 1017.42 1017.83 1018.26 1018.68 1019.05 1019.36 1019.60 1019.79 1019.95 1020.10 1020.24 1020.38 1020.51 1020.62 1020.69 1020.72 1020.71 1020.67 1020.61 1020.57
1015.73 1015.77 1015.82 1015.87 1015.93 1015.99 1016.05 1016.14 1016.26 1016.40 1016.56 1016.72 1016.85 1016.94 1016.97 1016.95 1016.88 1016.80 1016.75 1016.77 1016.90 1017.13 1017.49 1017.93 1018.43 1018.94 1019.41 1019.83 1020.16 1020.41 1020.61 1020.75 1020.87 1020.98 1021.09 1021.18 1021.26 1021.32 1021.34 1021.34 1021.32 1021.29 1021.26
1015.82 1015.83 1015.85 1015.88 1015.92 1016.00 1016.10 1016.24 1016.40 1016.58 1016.75 1016.90 1017.00 1017.04 1017.02 1016.95 1016.86 1016.80 1016.79 1016.88 1017.10 1017.44 1017.90 1018.45 1019.04 1019.61 1020.14 1020.60 1020.96 1021.23 1021.42 1021.56 1021.67 1021.76 1021.83 1021.90 1021.95 1021.99 1022.01 1022.01 1022.01 1022.00 1021.99
1015.88 1015.86 1015.85 1015.86 1015.91 1016.01 1016.16 1016.35 1016.56 1016.77 1016.95 1017.08 1017.14 1017.13 1017.05 1016.94 1016.84 1016.78 1016.82 1016.99 1017.30 1017.74 1018.29 1018.92 1019.58 1020.21 1020.79 1021.27 1021.66 1021.96 1022.17 1022.33 1022.44 1022.52 1022.58 1022.63 1022.67 1022.70 1022.72 1022.73 1022.74 1022.75 1022.77
1015.93 1015.89 1015.85 1015.86 1015.92 1016.05 1016.25 1016.49 1016.75 1016.99 1017.18 1017.29 1017.30 1017.24 1017.11 1016.97 1016.85 1016.81 1016.89 1017.11 1017.49 1018.01 1018.62 1019.31 1020.00 1020.67 1021.27 1021.78 1022.19 1022.52 1022.77 1022.96 1023.11 1023.22 1023.30 1023.37 1023.41 1023.45 1023.47 1023.49 1023.53 1023.56 1023.61
1015.99 1015.93 1015.88 1015.89 1015.97 1016.13 1016.37 1016.67 1016.97 1017.24 1017.43 1017.53 1017.51 1017.40 1017.23 1017.06 1016.93 1016.90 1017.01 1017.27 1017.69 1018.24 1018.88 1019.57 1020.27 1020.93 1021.53 1022.05 1022.49 1022.85 1023.16 1023.41 1023.62 1023.79 1023.93 1024.04 1024.13 1024.19 1024.24 1024.29 1024.35 1024.41 1024.48
1016.06 1016.00 1015.96 1015.97 1016.07 1016.27 1016.55 1016.88 1017.22 1017.52 1017.72 1017.81 1017.77 1017.63 1017.44 1017.25 1017.12 1017.09 1017.21 1017.48 1017.91 1018.45 1019.07 1019.73 1020.38 1021.00 1021.57 1022.08 1022.53 1022.93 1023.30 1023.63 1023.93 1024.20 1024.42 1024.61 1024.77 1024.88 1024.98 1025.07 1025.16 1025.26 1025.36
1016.17 1016.15 1016.12 1016.14 1016.25 1016.47 1016.77 1017.14 1017.51 1017.82 1018.04 1018.13 1018.09 1017.94 1017.75 1017.55 1017.42 1017.39 1017.51 1017.77 1018.17 1018.66 1019.22 1019.80 1020.37 1020.92 1021.43 1021.90 1022.35 1022.79 1023.22 1023.63 1024.03 1024.41 1024.74 1025.03 1025.26 1025.46 1025.62 1025.77 1025.90 1026.04 1026.16
1016.37 1016.38 1016.37 1016.41 1016.52 1016.75 1017.06 1017.44 1017.82 1018.14 1018.37 1018.47 1018.44 1018.31 1018.13 1017.95 1017.82 1017.80 1017.91 1018.14 1018.49 1018.91 1019.38 1019.85 1020.32 1020.77 1021.20 1021.62 1022.06 1022.51 1022.98 1023.47 1023.96 1024.43 1024.87 1025.26 1025.59 1025.87 1026.10 1026.31 1026.50 1026.67 1026.83
1016.67 1016.72 1016.73 1016.77 1016.89 1017.10 1017.40 1017.77 1018.14 1018.48 1018.71 1018.82 1018.82 1018.72 1018.56 1018.41 1018.31 1018.29 1018.39 1018.59 1018.88 1019.22 1019.59 1019.96 1020.32 1020.66 1021.00 1021.36 1021.76 1022.20 1022.69 1023.23 1023.78 1024.33 1024.84 1025.31 1025.73 1026.09 1026.39 1026.66 1026.90 1027.12 1027.32
1017.06 1017.15 1017.18 1017.22 1017.32 1017.51 1017.78 1018.12 1018.48 1018.80 1019.04 1019.16 1019.18 1019.12 1019.01 1018.89 1018.83 1018.83 1018.93 1019.11 1019.35 1019.62 1019.90 1020.18 1020.43 1020.68 1020.94 1021.24 1021.58 1022.00 1022.48 1023.01 1023.58 1024.16 1024.72 1025.24 1025.71 1026.12 1026.49 1026.81 1027.10 1027.37 1027.60
Thickness
5784 5784 5783 5782 5781 5780 5779 5779 5778 5777 5777 5776 5775 5774 5773 5773 5773 5772 5772 5772 5772 5772 5771 5771 5770 5770 5769 5768 5768 5767 5767 5767 5766 5766 5766 5765 5765 5765 5764 5764 5764 5764 5763
5787 5784 5782 5781 5780 5778 5777 5776 5776 5775 5775 5774 5773 5772 5771 5771 5771 5770 5770 5770 5770 5769 5769 5769 5768 5768 5767 5766 5766 5765 5765 5765 5765 5764 5764 5763 5762 5762 5762 5762 5761 5761 5761
5788 5784 5781 5780 5778 5777 5776 5775 5774 5773 5772 5772 5771 5770 5769 5769 5769 5768 5768 5767 5767 5767 5767 5766 5766 5765 5765 5764 5763 5763 5763 5763 5763 5762 5762 5761 5760 5760 5759 5759 5759 5758 5758
5788 5783 5780 5778 5776 5775 5774 5773 5772 5771 5770 5770 5769 5768 5767 5767 5766 5766 5765 5765 5764 5764 5764 5763 5763 5762 5762 5761 5761 5761 5761 5761 5761 5761 5760 5759 5758 5757 5756 5756 5756 5756 5756
5786 5781 5777 5776 5775 5773 5772 5771 5770 5769 5769 5768 5767 5766 5765 5764 5764 5763 5763 5762 5762 5761 5761 5760 5760 5760 5759 5759 5759 5759 5759 5759 5759 5759 5757 5756 5754 5753 5753 5753 5753 5753 5753
5784 5780 5776 5774 5773 5771 5770 5769 5768 5768 5767 5766 5765 5764 5763 5762 5761 5761 5760 5759 5759 5759 5758 5758 5757 5757 5756 5756 5756 5756 5756 5756 5756 5756 5754 5752 5751 5751 5750 5750 5750 5750 5749
5782 5779 5775 5772 5771 5769 5768 5767 5766 5766 5765 5763 5762 5761 5760 5760 5759 5758 5757 5757 5756 5755 5755 5754 5754 5754 5753 5753 5753 5753 5754 5754 5754 5753 5751 5749 5748 5748 5747 5747 5747 5746 5746
5782 5778 5774 5771 5770 5768 5766 5765 5764 5763 5762 5761 5760 5759 5758 5757 5756 5755 5755 5754 5753 5752 5752 5751 5751 5751 5750 5750 5750 5751 5751 5752 5752 5750 5748 5746 5745 5744 5744 5744 5743 5743 5743
5781 5778 5774 5771 5769 5766 5765 5764 5762 5761 5760 5759 5758 5757 5756 5755 5754 5753 5752 5751 5750 5749 5749 5748 5748 5747 5747 5747 5748 5748 5749 5749 5748 5747 5745 5742 5742 5741 5741 5740 5740 5739 5739
5779 5777 5774 5772 5769 5766 5764 5762 5761 5760 5758 5757 5756 5755 5754 5753 5752 5751 5749 5748 5747 5747 5746 5746 5745 5745 5744 5744 5745 5745 5745 5745 5744 5743 5740 5739 5738 5738 5737 5736 5736 5736 5736
5774 5774 5773 5771 5769 5766 5764 5761 5759 5758 5757 5756 5754 5753 5752 5752 5751 5749 5747 5746 5745 5744 5744 5743 5743 5742 5742 5742 5742 5742 5742 5742 5740 5739 5737 5736 5735 5734 5733 5733 5732 5732 5732
5768 5770 5771 5769 5768 5766 5764 5761 5759 5757 5755 5755 5754 5753 5752 5751 5749 5747 5745 5743 5742 5741 5741 5740 5740 5740 5739 5740 5740 5739 5739 5739 5737 5735 5733 5732 5732 5731 5730 5729 5729 5728 5728
5768 5767 5768 5767 5766 5764 5762 5760 5759 5757 5755 5754 5754 5752 5751 5749 5747 5745 5742 5741 5740 5739 5738 5738 5738 5737 5737 5737 5737 5736 5735 5735 5733 5730 5729 5729 5728 5727 5726 5725 5724 5724 5724
5766 5765 5766 5766 5765 5763 5761 5759 5757 5756 5754 5753 5752 5751 5749 5747 5745 5744 5742 5740 5738 5737 5736 5736 5735 5735 5734 5734 5734 5733 5732 5730 5728 5726 5724 5724 5724 5723 5722 5721 5720 5720 5719
5764 5764 5764 5764 5762 5760 5758 5757 5756 5754 5753 5751 5750 5749 5747 5745 5743 5742 5740 5738 5737 5735 5734 5733 5732 5731 5730 5730 5729 5729 5727 5726 5724 5722 5720 5719 5719 5718 5718 5717 5716 5716 5716
5763 5762 5762 5761 5760 5758 5756 5755 5754 5752 5751 5749 5748 5746 5745 5743 5742 5739 5737 5735 5734 5732 5731 5730 5728 5727 5726 5725 5724 5723 5723 5722 5720 5719 5716 5715 5714 5713 5713 5713 5712 5712 5712
5761 5760 5759 5759 5758 5756 5755 5753 5752 5750 5748 5746 5745 5744 5743 5741 5739 5737 5734 5732 5731 5729 5728 5726 5725 5723 5721 5720 5719 5719 5718 5717 5717 5715 5713 5711 5710 5709 5708 5708 5708 5707 5707
5760 5758 5756 5757 5755 5753 5751 5750 5748 5747 5745 5743 5742 5741 5740 5738 5737 5735 5731 5729 5727 5726 5724 5721 5719 5717 5716 5715 5714 5714 5714 5713 5713 5711 5710 5708 5706 5705 5703 5703 5702 5702 5702
5757 5755 5752 5752 5750 5749 5747 5745 5744 5742 5741 5739 5737 5736 5735 5734 5733 5731 5728 5726 5724 5722 5720 5718 5715 5713 5710 5709 5709 5709 5709 5709 5708 5707 5706 5704 5703 5701 5699 5698 5698 5697 5697
5754 5752 5749 5747 5746 5745 5743 5741 5738 5736 5735 5734 5733 5731 5730 5730 5728 5727 5725 5723 5720 5717 5715 5713 5710 5709 5707 5706 5706 5704 5704 5704 5704 5703 5701 5700 5699 5698 5696 5695 5694 5693 5692
5749 5747 5745 5743 5742 5740 5736 5734 5731 5728 5729 5728 5728 5727 5727 5726 5725 5724 5722 5719 5716 5713 5710 5709 5706 5704 5702 5703 5699 5696 5697 5699 5698 5697 5697 5695 5694 5693 5692 5691 5690 5689 5688
5744 5743 5741 5739 5738 5736 5733 5731 5729 5726 5725 5724 5724 5723 5723 5722 5721 5720 5718 5715 5712 5709 5707 5705 5703 5699 5698 5699 5695 5689 5684 5685 5689 5692 5691 5690 5689 5689 5688 5687 5686 5685 5683
5739 5738 5738 5736 5735 5733 5731 5728 5725 5722 5720 5718 5717 5718 5718 5718 5717 5716 5714 5712 5709 5707 5703 5702 5700 5697 5693 5695 5695 5689 5680 5675 5678 5682 5685 5684 5684 5683 5682 5682 5681 5680 5678
5735 5736 5735 5733 5731 5729 5727 5723 5719 5715 5712 5713 5713 5714 5715 5715 5714 5712 5711 5709 5706 5704 5702 5700 5698 5696 5693 5690 5691 5691 5689 5684 5675 5671 5675 5678 5679 5678 5677 5676 5676 5674 5673
5732 5731 5730 5728 5727 5725 5722 5720 5716 5713 5711 5711 5711 5711 5710 5710 5710 5709 5708 5706 5704 5701 5699 5698 5696 5694 5692 5689 5687 5686 5684 5683 5680 5672 5666 5669 5671 5673 5673 5672 5670 5669 5668
5728 5726 5725 5723 5721 5720 5718 5716 5713 5709 5708 5706 5706 5705 5705 5705 5706 5705 5704 5703 5701 5699 5697 5695 5693 5691 5689 5688 5686 5684 5681 5678 5675 5672 5666 5664 5663 5666 5668 5668 5666 5665 5664